TimeCST,TemperatureF,Dew PointF,Humidity,Sea Level PressureIn,VisibilityMPH,Wind Direction,Wind SpeedMPH,Gust SpeedMPH,PrecipitationIn,Events,Conditions,WindDirDegrees,DateUTC
12:52 AM,33.1,27.0,78,30.21,6.0,ESE,6.9,-,N/A,,Haze,110,2013-03-08 06:52:00
1:52 AM,34.0,28.0,79,30.21,7.0,East,8.1,-,N/A,,Clear,100,2013-03-08 07:52:00
2:52 AM,34.0,27.0,75,30.20,7.0,East,8.1,-,N/A,,Clear,100,2013-03-08 08:52:00
3:52 AM,35.1,28.0,76,30.19,7.0,ESE,8.1,-,N/A,,Clear,110,2013-03-08 09:52:00
4:52 AM,36.0,28.9,76,30.17,7.0,ESE,9.2,-,N/A,,Clear,110,2013-03-08 10:52:00
5:52 AM,36.0,28.9,76,30.19,6.0,ESE,8.1,-,N/A,,Haze,110,2013-03-08 11:52:00
6:52 AM,37.9,30.0,73,30.19,5.0,ESE,10.4,-,N/A,,Haze,110,2013-03-08 12:52:00
7:52 AM,41.0,32.0,70,30.19,5.0,ESE,10.4,-,N/A,,Haze,120,2013-03-08 13:52:00
8:52 AM,44.1,34.0,68,30.18,5.0,ESE,10.4,-,N/A,,Haze,120,2013-03-08 14:52:00
9:52 AM,51.1,35.1,54,30.17,6.0,SE,13.8,-,N/A,,Haze,140,2013-03-08 15:52:00
10:52 AM,55.9,35.1,45,30.15,6.0,SE,19.6,-,N/A,,Haze,140,2013-03-08 16:52:00
11:52 AM,57.9,37.9,47,30.15,6.0,SE,16.1,-,N/A,,Haze,140,2013-03-08 17:52:00
12:52 PM,60.1,39.9,47,30.12,6.0,SE,15.0,-,N/A,,Haze,140,2013-03-08 18:52:00
1:09 PM,59.0,41.0,51,30.10,6.0,SSE,16.1,-,N/A,,Haze,150,2013-03-08 19:09:00
1:45 PM,62.6,42.8,48,30.08,6.0,SE,17.3,-,N/A,,Haze,140,2013-03-08 19:45:00
1:52 PM,61.0,42.1,50,30.09,6.0,SE,16.1,-,N/A,,Haze,140,2013-03-08 19:52:00
2:52 PM,57.9,42.1,56,30.07,6.0,ESE,17.3,21.9,N/A,,Haze,120,2013-03-08 20:52:00
3:52 PM,57.0,41.0,55,30.05,6.0,ESE,17.3,-,N/A,,Haze,110,2013-03-08 21:52:00
4:52 PM,55.9,41.0,57,30.02,7.0,ESE,17.3,23.0,N/A,,Overcast,110,2013-03-08 22:52:00
5:52 PM,54.0,39.9,59,30.02,7.0,ESE,15.0,-,N/A,,Overcast,110,2013-03-08 23:52:00
6:52 PM,52.0,41.0,66,30.04,8.0,East,8.1,-,N/A,,Overcast,100,2013-03-09 00:52:00
7:52 PM,55.0,39.9,57,30.02,8.0,SE,15.0,-,N/A,,Overcast,130,2013-03-09 01:52:00
8:52 PM,54.0,39.0,57,30.02,8.0,SE,16.1,-,0.00,,Overcast,140,2013-03-09 02:52:00
9:52 PM,53.1,39.0,59,30.01,8.0,SE,10.4,-,N/A,,Overcast,130,2013-03-09 03:52:00
10:52 PM,52.0,39.0,61,29.99,8.0,SE,12.7,-,0.00,,Overcast,140,2013-03-09 04:52:00
11:52 PM,51.1,39.0,63,29.96,7.0,SE,10.4,-,N/A,,Overcast,130,2013-03-09 05:52:00